Regional Weather Roundup
Issued by NWS

Home | Current Version | Previous Version | Text Only | Print | Product List | Glossary On
Versions: 1 2 3 4 5 6 7 8 9 10 11 12 13 14 15 16 17 18 19 20 21 22 23 24 25 26 27 28 29 30 31 32 33 34 35 36 37 38 39 40 41 42 43 44 45 46 47 48 49 50
200
ASUS45 KSLC 111310
RWRUT

UTAH REGIONAL WEATHER ROUNDUP
NATIONAL WEATHER SERVICE SALT LAKE CITY UT
600 AM MST THU FEB 11 2016

UTZ001>011-023>025-111400-

NORTHERN UTAH

CITY           SKY/WX    TMP DP  RH WIND       PRES   REMARKS
BRIGHAM CITY   CLOUDY    26  24  93 N3        30.49S
HILL AFB       MOCLDY    25  22  87 NW2       30.45R FOG
LOGAN          FOG       22  22 100 CALM      30.48R VSB 1
OGDEN          CLOUDY    26  26 100 VRB3      30.46S FOG
PROVO AIRPORT    N/A    N/A N/A N/A CALM      30.45S VSB<1/4
SALT LAKE CITY FOG       29  27  92 N3        30.47R VSB 1/2
VERNAL         CLOUDY    13   8  81 W5        30.41R WCI   5
WENDOVER       CLOUDY    28  25  86 E5        30.46S WCI  23
HEBER CITY     MOCLDY     5   1  85 CALM      30.43S FOG
WEST JORDAN    CLOUDY    27  27 100 W5        30.47R WCI  21

$$

UTZ012>022-026-027-111400-

SOUTHERN/CENTRAL UTAH

CITY           SKY/WX    TMP DP  RH WIND       PRES   REMARKS
BLANDING       PTCLDY    30  21  69 CALM      30.44R
BRYCE CANYON   PTCLDY    14   5  67 W13       30.43R WCI   0
CEDAR CITY     MOCLDY    17  15  92 CALM      30.36F
DELTA          CLOUDY     9   7  92 CALM      30.44R VSB 1/4
HANKSVILLE     CLOUDY    23  23 100 CALM      30.44R
MILFORD        FOG        6   4  91 W5        30.42S VSB 1/4 WCI  -3
MOAB/CYNLANDS  PTCLDY    26  22  84 CALM      30.39R
PRICE          PTCLDY    20  13  74 NE8       30.38R WCI  10
ST GEORGE      MOSUNNY   39  21  48 CALM      30.34R
KANAB          CLEAR     28  25  86 NE5       30.38S WCI  23

$$

REGIONAL REPORTS     COLORADO/ARIZONA

CITY           SKY/WX    TMP DP  RH WIND       PRES   REMARKS
CRAIG, CO      CLOUDY    -5  -9  83 CALM      30.40S
GRAND JUNCTION CLOUDY    24  19  81 E13       30.40S WCI  12
RIFLE          CLOUDY    13   8  81 SE3       30.44R
MONTROSE       CLOUDY    18  12  77 SE8       30.45R WCI   8
CORTEZ         CLOUDY    16  12  84 CALM      30.39R
PAGE, AZ       MOCLDY    32  27  81 CALM      30.37R
GRAND CANYON   PTCLDY    20  15  81 CALM      30.38S
KINGMAN        CLEAR     33  32  96 CALM      30.24S
FLAGSTAFF      PTCLDY    18  14  84 CALM      30.39R

$$

REGIONAL REPORTS    NEVADA/IDAHO/WYOMING

CITY           SKY/WX    TMP DP  RH WIND       PRES   REMARKS
LAS VEGAS, NV  PTCLDY    47  25  42 CALM      30.20S
ELY            MOCLDY    14   7  73 S14       30.40R WCI  -1
ELKO           CLOUDY    12   8  84 E6        30.42S WCI   3
POCATELLO, ID  CLOUDY    20  18  92 N9        30.40R WCI   9
BURLEY         PTCLDY    23  20  88 N6        30.35F WCI  16
EVANSTON, WY   CLOUDY    26  11  52 S8        30.40R WCI  18
ROCK SPRINGS   CLOUDY    30  14  51 S7        30.34S WCI  23

$$




USA.gov is the U.S. government's official web portal to all federal, state and local government web resources and services.